Hourly Data Report for December 25, 2012

BAGOTVILLE A
QUEBEC

48°20'00.000" N
71°00'00.000" W
159.10 m
7060400
71727
YBG

Download Data

Hourly Data (December 2012)
Hourly Data Report for December 25, 2012
TIME
LST
Temp Definition
°C
Dew Point Definition
°C
Rel Hum Definition
%
Precip. Amount Definition
mm

Wind Dir Definition
10's deg

Wind Spd Definition
km/h
Visibility Definition
km
Stn Press Definition
kPa
Hmdx Definition


Wind Chill Definition


Weather Definition


00:00 -12.4 -15.3 79   27 19 24.1 99.73   -21 Cloudy
01:00 -12.7 -15.6 79   28 22 9.7 99.80   -22 Snow Showers
02:00 -12.5 -14.9 82   28 15 9.7 99.91   -20 Snow Showers
03:00 -12.5 -14.9 82   27 15 8.0 99.97   -20 Snow Showers
04:00 -12.4 -14.8 82   27 11 8.0 99.96   -18 Snow Showers
05:00 -12.4 -14.8 82   27 13 9.7 100.00   -19 Snow Showers
06:00 -12.3 -14.7 82   28 13 9.7 100.05   -19 Snow Showers
07:00 -12.2 -14.6 82   27 11 8.0 100.11   -18 Snow Showers
08:00 -12.0 -15.3 76   30 13 4.8 100.14   -19 Snow Showers
09:00 -12.0 -15.3 76   30 13 4.0 100.17   -19 Snow Showers
10:00 -11.8 -15.1 76   30 19 6.4 100.26   -20 Snow Showers
11:00 -11.4 -14.6 77   31 22 2.4 100.28   -20 Snow Showers
12:00 -11.4 -13.6 84   31 15 3.2 100.26   -18 Snow Showers
13:00 -11.2 -13.4 84   30 17 2.4 100.27   -19 Snow Showers
14:00 -11.2 -13.9 80   31 19 2.4 100.30   -19 Snow
15:00 -11.5 -13.8 83   30 19 2.4 100.38   -20 Snow
16:00 -11.8 -15.1 76   29 19 2.4 100.41   -20 Snow
17:00 -11.8 -15.1 76   29 19 8.0 100.47   -20 Snow
18:00 -12.0 -14.8 80   28 15 8.0 100.50   -19 Snow
19:00 -11.8 -15.1 76   28 19 8.0 100.56   -20 Snow
20:00 -11.8 -14.1 83   27 15 9.7 100.58   -19 Snow
21:00 -11.8 -14.1 83   28 15 9.7 100.66   -19 Snow
22:00 -11.9 -14.2 83   29 19 9.7 100.69   -20 Snow
23:00 -12.0 -14.3 83   29 22 9.7 100.77   -21 Snow

Notes on Data Quality.

Legend

  • E = Estimated
  • M = Missing
  • NA = Not Available*
  • [empty] = Indicates an unobserved value
Date modified: